Tracking 31027 objects as of 19-Jul-2025
HD Live streaming from Space Station
objects crossing your sky now

SHIYAN 20A DEB

Track SHIYAN 20A DEB now!
10-day predictions


NORAD ID: 55716
Int'l Code: 2022-169E
Perigee: 786.5 km
Apogee: 797.1 km
Inclination: 60.0 °
Period: 100.5 minutes
Semi major axis: 7162 km
RCS: Unknown
Launch date: December 12, 2022
Source: People's Republic of China (PRC)
Launch site: Jiuquan Satellite Launch Center, China (JSC)

Note: This is SATELLITE DEBRIS
Your satellite tracking list
SL-14 DEB
Track 1 satellite(s)




NASA's NSSDC Master Catalog

Two Line Element Set (TLE):
1 55716U 22169E   25199.42904437  .00000458  00000-0  22067-3 0  9990
2 55716  59.9937 257.1666 0007402  13.0814 347.0413 14.32123350125151
Source of the keplerian elements: AFSPC